{"data":{"norad_id":63152,"epoch":"2026-05-24T22:25:31.188000Z","epoch_age_seconds":83816,"freshness":"FRESH","line1":"1 63152U 25043W   26144.93438875  .00025302  00000+0  92500-3 0  9995","line2":"2 63152  43.0015 312.4660 0002072 275.4678  84.5937 15.27608914 68940","mean_motion":15.27608914,"eccentricity":0.0002072,"inclination_deg":43.0015,"raan_deg":312.466,"arg_perigee_deg":275.4678,"mean_anomaly_deg":84.5937,"bstar":0.000925,"rev_number":6894,"period_min":94.264964468517,"perigee_km":481.54089866728,"apogee_km":484.38413830774,"semimajor_km":6861.0995184875,"source":"CELESTRAK","updated_at":"2026-05-25T13:38:19.918361Z"}}